Bezoek onze andere website:

Meteotemplate

Home Weather Station

Saratoga


Lokaal brand risico:
CBI


Regionaal brand risico: Meer informatie



Select another period ( hide this area )

Eenheden Periode Custom range Directly to
Metrisch Engels Beide
Dagelijkse Wekelijkse Maandelijkse Jaarlijkse
use both date-selectors for a custom range
previous Dag
With this date

WeatherUnderground graphs for this period ( click here )


Dagelijkse Samenvatting Donderdag 21 februari 2019
Tijd Temp. ( °C ) Dew pt. ( °C ) Wind ( km/h ) van Vlaag ( km/h ) Luchtdruk ( hPa ) Humid.( % ) Rainrate ( cm )
Hoog6,4 4,5 1,8 WZW ( 4/5 ) 3,2 1025,3 94 -
Gemiddeld3,7 2,2 0,1 Kalm #62/65 0,1 1024,7 90 -
Laag2,1 0,7 -   0,0 1023,9 83 -
Dagelijkse Tabular details for Donderdag 21 februari 2019
Tijd Temp. ( °C ) Dew pt. ( °C ) Wind ( km/h ) van Vlaag ( km/h ) Luchtdruk ( hPa ) Humid.( % ) Rainrate ( cm )
00:04 6,4 3,9   Kalm   1023,9 84 -
00:09 6,3 3,8   Kalm   1023,9 84 -
00:14 6,1 3,6   Kalm   1023,9 84 -
00:19 5,9 3,2   Kalm   1024,3 83 -
00:24 5,7 3,2   Kalm   1024,3 84 -
00:29 5,4 2,9   Kalm   1024,3 84 -
00:34 5,3 3,0   Kalm   1024,3 85 -
00:39 5,1 2,6   Kalm   1024,3 84 -
00:44 4,8 2,5   Kalm   1024,6 85 -
00:49 4,6 2,3   Kalm   1024,6 85 -
00:54 4,4 2,3   Kalm   1024,3 86 -
00:59 4,2 2,1   Kalm   1024,6 86 -
01:04 4,1 2,1   Kalm   1024,3 87 -
01:09 3,9 1,9   Kalm   1024,6 87 -
01:14 3,7 1,7   Kalm   1024,6 87 -
01:19 3,7 1,9   Kalm   1024,6 88 -
01:24 3,6 1,8   Kalm   1024,6 88 -
01:29 3,6 2,0   Kalm   1024,6 89 -
01:34 3,6 2,0   Kalm   1024,6 89 -
01:39 3,4 1,8   Kalm   1024,6 89 -
01:44 3,4 1,8   Kalm   1024,6 89 -
01:49 3,3 1,7   Kalm   1024,6 89 -
01:54 3,2 1,6   Kalm   1024,6 89 -
01:59 3,1 1,3   Kalm   1024,6 88 -
02:04 2,9 1,3   Kalm   1024,6 89 -
02:09 2,8 1,2   Kalm   1024,9 89 -
02:14 2,7 1,1   Kalm   1024,9 89 -
02:19 2,7 1,1   Kalm   1024,9 89 -
02:24 2,6 1,1   Kalm   1024,9 90 -
02:29 2,5 1,0   Kalm   1024,9 90 -
02:34 2,4 0,9   Kalm   1024,9 90 -
02:39 2,3 0,8   Kalm   1024,9 90 -
02:44 2,2 0,7   Kalm   1024,9 90 -
02:49 2,2 0,7   Kalm   1025,3 90 -
02:54 2,2 0,9   Kalm   1024,9 91 -
02:59 2,1 0,8   Kalm   1024,9 91 -
03:04 2,1 0,8   Kalm   1024,9 91 -
03:09 2,1 0,8   Kalm   1024,9 91 -
03:14 2,1 0,8   Kalm   1025,3 91 -
03:19 2,1 0,9   Kalm   1024,9 92 -
03:24 2,2 1,0   Kalm   1024,9 92 -
03:29 2,2 1,0   Kalm   1024,9 92 -
03:34 2,3 1,1   Kalm   1024,9 92 -
03:39 2,4 1,2   Kalm   1024,9 92 -
03:44 2,4 1,2   Kalm   1024,9 92 -
03:49 2,5 1,3   Kalm   1024,9 92 -
03:54 2,6 1,4   Kalm   1024,9 92 -
03:59 2,7 1,7   Kalm   1024,9 93 -
04:04 2,8 1,8   Kalm   1024,9 93 -
04:09 2,9 1,9   Kalm   1024,9 93 -
04:14 3,2 2,2   Kalm   1024,9 93 -
04:19 3,4 2,5   Kalm   1024,9 94 -
04:24 3,7 2,8   Kalm   1024,9 94 -
04:29 3,9 3,0   Kalm   1024,9 94 -
04:34 4,1 3,2   Kalm   1024,9 94 -
04:39 4,4 3,5   Kalm   1024,9 94 -
04:44 4,7 3,8   Kalm   1024,9 94 -
04:49 4,8 3,9   Kalm   1024,9 94 -
04:54 4,9 4,0   Kalm   1024,9 94 -
04:59 5,2 4,3 1,8 ZZW 3,2 1024,9 94 -
05:04 5,4 4,5 1,8 WZW 3,2 1024,9 94 -
05:09 5,5 4,5   Kalm 1,6 1024,9 93 -
05:14 5,6 4,4 1,8 WZW 1,6 1024,9 92 -
05:19 5,6 4,2   Kalm   1024,9 91 -
05:24 5,6 4,2   Kalm   1024,6 91 -
Dagelijkse Samenvatting Donderdag 21 februari 2019
Tijd Temp. ( °C ) Dew pt. ( °C ) Wind ( km/h ) van Vlaag ( km/h ) Luchtdruk ( hPa ) Humid.( % ) Rainrate ( cm )
Hoog6,4 4,5 1,8 WZW ( 4/5 ) 3,2 1025,3 94 -
Gemiddeld3,7 2,2 0,1 Kalm #62/65 0,1 1024,7 90 -
Laag2,1 0,7 -   0,0 1023,9 83 -
Dagelijkse Tabular details for Donderdag 21 februari 2019
Tijd Temp. ( °C ) Dew pt. ( °C ) Wind ( km/h ) van Vlaag ( km/h ) Luchtdruk ( hPa ) Humid.( % ) Rainrate ( cm )
00:04 6,4 3,9   Kalm   1023,9 84 -
00:09 6,3 3,8   Kalm   1023,9 84 -
00:14 6,1 3,6   Kalm   1023,9 84 -
00:19 5,9 3,2   Kalm   1024,3 83 -
00:24 5,7 3,2   Kalm   1024,3 84 -
00:29 5,4 2,9   Kalm   1024,3 84 -
00:34 5,3 3,0   Kalm   1024,3 85 -
00:39 5,1 2,6   Kalm   1024,3 84 -
00:44 4,8 2,5   Kalm   1024,6 85 -
00:49 4,6 2,3   Kalm   1024,6 85 -
00:54 4,4 2,3   Kalm   1024,3 86 -
00:59 4,2 2,1   Kalm   1024,6 86 -
01:04 4,1 2,1   Kalm   1024,3 87 -
01:09 3,9 1,9   Kalm   1024,6 87 -
01:14 3,7 1,7   Kalm   1024,6 87 -
01:19 3,7 1,9   Kalm   1024,6 88 -
01:24 3,6 1,8   Kalm   1024,6 88 -
01:29 3,6 2,0   Kalm   1024,6 89 -
01:34 3,6 2,0   Kalm   1024,6 89 -
01:39 3,4 1,8   Kalm   1024,6 89 -
01:44 3,4 1,8   Kalm   1024,6 89 -
01:49 3,3 1,7   Kalm   1024,6 89 -
01:54 3,2 1,6   Kalm   1024,6 89 -
01:59 3,1 1,3   Kalm   1024,6 88 -
02:04 2,9 1,3   Kalm   1024,6 89 -
02:09 2,8 1,2   Kalm   1024,9 89 -
02:14 2,7 1,1   Kalm   1024,9 89 -
02:19 2,7 1,1   Kalm   1024,9 89 -
02:24 2,6 1,1   Kalm   1024,9 90 -
02:29 2,5 1,0   Kalm   1024,9 90 -
02:34 2,4 0,9   Kalm   1024,9 90 -
02:39 2,3 0,8   Kalm   1024,9 90 -
02:44 2,2 0,7   Kalm   1024,9 90 -
02:49 2,2 0,7   Kalm   1025,3 90 -
02:54 2,2 0,9   Kalm   1024,9 91 -
02:59 2,1 0,8   Kalm   1024,9 91 -
03:04 2,1 0,8   Kalm   1024,9 91 -
03:09 2,1 0,8   Kalm   1024,9 91 -
03:14 2,1 0,8   Kalm   1025,3 91 -
03:19 2,1 0,9   Kalm   1024,9 92 -
03:24 2,2 1,0   Kalm   1024,9 92 -
03:29 2,2 1,0   Kalm   1024,9 92 -
03:34 2,3 1,1   Kalm   1024,9 92 -
03:39 2,4 1,2   Kalm   1024,9 92 -
03:44 2,4 1,2   Kalm   1024,9 92 -
03:49 2,5 1,3   Kalm   1024,9 92 -
03:54 2,6 1,4   Kalm   1024,9 92 -
03:59 2,7 1,7   Kalm   1024,9 93 -
04:04 2,8 1,8   Kalm   1024,9 93 -
04:09 2,9 1,9   Kalm   1024,9 93 -
04:14 3,2 2,2   Kalm   1024,9 93 -
04:19 3,4 2,5   Kalm   1024,9 94 -
04:24 3,7 2,8   Kalm   1024,9 94 -
04:29 3,9 3,0   Kalm   1024,9 94 -
04:34 4,1 3,2   Kalm   1024,9 94 -
04:39 4,4 3,5   Kalm   1024,9 94 -
04:44 4,7 3,8   Kalm   1024,9 94 -
04:49 4,8 3,9   Kalm   1024,9 94 -
04:54 4,9 4,0   Kalm   1024,9 94 -
04:59 5,2 4,3 1,8 ZZW 3,2 1024,9 94 -
05:04 5,4 4,5 1,8 WZW 3,2 1024,9 94 -
05:09 5,5 4,5   Kalm 1,6 1024,9 93 -
05:14 5,6 4,4 1,8 WZW 1,6 1024,9 92 -
05:19 5,6 4,2   Kalm   1024,9 91 -
05:24 5,6 4,2   Kalm   1024,6 91 -

Download your copy of this data-set  here

Our weather-data as stored at Weather Underground. Script ontwikkeld door Jim McMurry. Aangepast voor de template door Leuven-Template.eu

U vindt ons ook hier:

Het Weer Aktueel

UK Metoffice

European Weather Network

WeatherCloud

Weather Underground

Benelux Weer Netwerk

AWEKAS

Citizen Weather Observer Program (CWOP)

Apparatuur in gebruik:

Weerstation
Davis VP2

Weerprogramma
Meteobridge

Weercomputer
TP-Link MR3020

Davis VP2

Meteobridge

TP-Link MR3020